Wolke Sonne

Wetter Ammerndorf

Gehe zu: Roßtal

Tageswerte vom Freitag, 18.09.2020

Optionen

Tag:
Erweitert:

Alle Werte vom Freitag, 18.09.2020

Einen Moment bitte, die Daten werden aufbereitet...

UhrzeitTemperaturBoden 10cmBoden 20cmFeuchteLuftdruckNiederschlagEvapotranspirationWindWindböenWindrichtungSolarstrahlungUV-IndexSonne?Uhrzeit
Diagramm IconDiagramm IconDiagramm IconDiagramm IconDiagramm IconDiagramm IconDiagramm IconDiagramm IconDiagramm IconDiagramm IconDiagramm IconDiagramm IconDiagramm Icon
00:009,7 °C 17,2 °C 18,3 °C 87 % 1024,8 hPa 0,0 mm - 0,0 km/h 1,4 km/h N 0,0 W/qm 0,0 nein 00:00
00:059,8 °C 17,2 °C 18,3 °C 86 % 1024,8 hPa 0,0 mm 0,0 mm 0,0 km/h 3,2 km/h N 0,0 W/qm 0,0 nein 00:05
00:1010,2 °C 17,2 °C 18,3 °C 85 % 1024,7 hPa 0,0 mm 0,0 mm 1,4 km/h 4,7 km/h NNW 0,0 W/qm 0,0 nein 00:10
00:1510,5 °C 17,2 °C 18,3 °C 83 % 1024,7 hPa 0,0 mm - 1,4 km/h 4,7 km/h NNO 0,0 W/qm 0,0 nein 00:15
00:2010,8 °C 17,2 °C 18,3 °C 81 % 1024,7 hPa 0,0 mm - 1,4 km/h 6,5 km/h NNO 0,0 W/qm 0,0 nein 00:20
00:2511,1 °C 17,2 °C 18,3 °C 80 % 1024,8 hPa 0,0 mm - 1,4 km/h 6,5 km/h N 0,0 W/qm 0,0 nein 00:25
00:3011,3 °C 17,2 °C 18,3 °C 78 % 1024,7 hPa 0,0 mm - 3,2 km/h 6,5 km/h NO 0,0 W/qm 0,0 nein 00:30
00:3511,5 °C 17,2 °C 18,3 °C 77 % 1024,7 hPa 0,0 mm - 4,7 km/h 7,9 km/h NO 0,0 W/qm 0,0 nein 00:35
00:4011,7 °C 17,2 °C 18,3 °C 76 % 1024,6 hPa 0,0 mm - 3,2 km/h 13,0 km/h NNO 0,0 W/qm 0,0 nein 00:40
00:4511,7 °C 17,2 °C 18,3 °C 75 % 1024,7 hPa 0,0 mm - 1,4 km/h 13,0 km/h NNO 0,0 W/qm 0,0 nein 00:45
00:5011,7 °C 17,2 °C 18,3 °C 75 % 1024,7 hPa 0,0 mm - 3,2 km/h 13,0 km/h OSO 0,0 W/qm 0,0 nein 00:50
00:5511,7 °C 17,2 °C 18,3 °C 75 % 1024,7 hPa 0,0 mm - 3,2 km/h 7,9 km/h NNO 0,0 W/qm 0,0 nein 00:55
01:0011,7 °C 17,2 °C 18,3 °C 75 % 1024,6 hPa 0,0 mm - 3,2 km/h 7,9 km/h N 0,0 W/qm 0,0 nein 01:00
01:0511,8 °C 17,2 °C 18,3 °C 74 % 1024,6 hPa 0,0 mm 0,0 mm 3,2 km/h 7,9 km/h ONO 0,0 W/qm 0,0 nein 01:05
01:1011,9 °C 17,2 °C 18,3 °C 74 % 1024,5 hPa 0,0 mm 0,0 mm 3,2 km/h 9,7 km/h NNO 0,0 W/qm 0,0 nein 01:10
01:1511,6 °C 17,2 °C 18,3 °C 75 % 1024,5 hPa 0,0 mm - 1,4 km/h 9,7 km/h N 0,0 W/qm 0,0 nein 01:15
01:2011,5 °C 17,2 °C 18,3 °C 75 % 1024,5 hPa 0,0 mm - 0,0 km/h 9,7 km/h NNO 0,0 W/qm 0,0 nein 01:20
01:2511,6 °C 17,2 °C 18,3 °C 75 % 1024,4 hPa 0,0 mm - 1,4 km/h 6,5 km/h NNO 0,0 W/qm 0,0 nein 01:25
01:3011,6 °C 17,2 °C 18,3 °C 75 % 1024,4 hPa 0,0 mm - 1,4 km/h 9,7 km/h O 0,0 W/qm 0,0 nein 01:30
01:3511,4 °C 17,2 °C 18,3 °C 75 % 1024,4 hPa 0,0 mm - 0,0 km/h 9,7 km/h ONO 0,0 W/qm 0,0 nein 01:35
01:4011,6 °C 17,2 °C 18,3 °C 74 % 1024,4 hPa 0,0 mm - 1,4 km/h 9,7 km/h NNW 0,0 W/qm 0,0 nein 01:40
01:4511,6 °C 17,2 °C 18,3 °C 74 % 1024,4 hPa 0,0 mm - 1,4 km/h 6,5 km/h ONO 0,0 W/qm 0,0 nein 01:45
01:5011,8 °C 17,2 °C 18,3 °C 74 % 1024,3 hPa 0,0 mm - 3,2 km/h 9,7 km/h WNW 0,0 W/qm 0,0 nein 01:50
01:5511,9 °C 17,2 °C 18,3 °C 73 % 1024,3 hPa 0,0 mm - 3,2 km/h 9,7 km/h ONO 0,0 W/qm 0,0 nein 01:55
UhrzeitTemperaturBoden 10cmBoden 20cmFeuchteLuftdruckNiederschlagEvapotranspirationWindWindböenWindrichtungSolarstrahlungUV-IndexSonne?Uhrzeit
02:0011,9 °C 17,2 °C 18,3 °C 73 % 1024,3 hPa 0,0 mm - 1,4 km/h 9,7 km/h N 0,0 W/qm 0,0 nein 02:00
02:0511,8 °C 17,2 °C 18,3 °C 74 % 1024,4 hPa 0,0 mm 0,0 mm 0,0 km/h 7,9 km/h NNO 0,0 W/qm 0,0 nein 02:05
02:1011,8 °C 17,2 °C 18,3 °C 74 % 1024,3 hPa 0,0 mm 0,0 mm 0,0 km/h 6,5 km/h NNW 0,0 W/qm 0,0 nein 02:10
02:1511,9 °C 17,2 °C 18,3 °C 73 % 1024,2 hPa 0,0 mm - 1,4 km/h 6,5 km/h N 0,0 W/qm 0,0 nein 02:15
02:2011,9 °C 16,7 °C 17,8 °C 73 % 1024,1 hPa 0,0 mm - 1,4 km/h 4,7 km/h ONO 0,0 W/qm 0,0 nein 02:20
02:2511,9 °C 16,7 °C 17,8 °C 73 % 1024,1 hPa 0,0 mm - 1,4 km/h 4,7 km/h NNO 0,0 W/qm 0,0 nein 02:25
02:3011,8 °C 16,7 °C 17,8 °C 73 % 1024,0 hPa 0,0 mm - 1,4 km/h 7,9 km/h SO 0,0 W/qm 0,0 nein 02:30
02:3511,7 °C 16,7 °C 17,8 °C 74 % 1024,0 hPa 0,0 mm - 1,4 km/h 7,9 km/h NO 0,0 W/qm 0,0 nein 02:35
02:4011,7 °C 16,7 °C 17,8 °C 75 % 1024,0 hPa 0,0 mm - 0,0 km/h 6,5 km/h ONO 0,0 W/qm 0,0 nein 02:40
02:4511,6 °C 16,7 °C 17,8 °C 74 % 1023,9 hPa 0,0 mm - 1,4 km/h 6,5 km/h NNO 0,0 W/qm 0,0 nein 02:45
02:5011,6 °C 16,7 °C 17,8 °C 74 % 1024,0 hPa 0,0 mm - 1,4 km/h 7,9 km/h NNW 0,0 W/qm 0,0 nein 02:50
02:5511,6 °C 16,7 °C 17,8 °C 75 % 1024,0 hPa 0,0 mm - 1,4 km/h 7,9 km/h NNO 0,0 W/qm 0,0 nein 02:55
03:0011,6 °C 16,7 °C 17,8 °C 74 % 1024,0 hPa 0,0 mm - 1,4 km/h 7,9 km/h ONO 0,0 W/qm 0,0 nein 03:00
03:0511,6 °C 16,7 °C 17,8 °C 74 % 1024,1 hPa 0,0 mm 0,0 mm 3,2 km/h 4,7 km/h NNO 0,0 W/qm 0,0 nein 03:05
03:1011,7 °C 16,7 °C 17,8 °C 74 % 1024,0 hPa 0,0 mm 0,0 mm 3,2 km/h 7,9 km/h NNW 0,0 W/qm 0,0 nein 03:10
03:1511,7 °C 16,7 °C 17,8 °C 74 % 1024,0 hPa 0,0 mm - 3,2 km/h 7,9 km/h NO 0,0 W/qm 0,0 nein 03:15
03:2011,9 °C 16,7 °C 17,8 °C 73 % 1024,0 hPa 0,0 mm - 3,2 km/h 6,5 km/h NO 0,0 W/qm 0,0 nein 03:20
03:2512,0 °C 16,7 °C 17,8 °C 72 % 1024,0 hPa 0,0 mm - 3,2 km/h 11,2 km/h O 0,0 W/qm 0,0 nein 03:25
03:3012,0 °C 16,7 °C 17,8 °C 73 % 1023,8 hPa 0,0 mm - 3,2 km/h 11,2 km/h ONO 0,0 W/qm 0,0 nein 03:30
03:3512,0 °C 16,7 °C 17,8 °C 72 % 1023,8 hPa 0,0 mm - 3,2 km/h 11,2 km/h NO 0,0 W/qm 0,0 nein 03:35
03:4011,8 °C 16,7 °C 17,8 °C 72 % 1023,9 hPa 0,0 mm - 3,2 km/h 9,7 km/h ONO 0,0 W/qm 0,0 nein 03:40
03:4511,8 °C 16,7 °C 17,8 °C 72 % 1023,9 hPa 0,0 mm - 3,2 km/h 9,7 km/h NW 0,0 W/qm 0,0 nein 03:45
03:5011,5 °C 16,7 °C 17,8 °C 73 % 1023,9 hPa 0,0 mm - 1,4 km/h 11,2 km/h NNW 0,0 W/qm 0,0 nein 03:50
03:5511,3 °C 16,7 °C 17,8 °C 74 % 1023,9 hPa 0,0 mm - 1,4 km/h 11,2 km/h N 0,0 W/qm 0,0 nein 03:55
UhrzeitTemperaturBoden 10cmBoden 20cmFeuchteLuftdruckNiederschlagEvapotranspirationWindWindböenWindrichtungSolarstrahlungUV-IndexSonne?Uhrzeit
04:0011,2 °C 16,7 °C 17,8 °C 74 % 1023,9 hPa 0,0 mm - 3,2 km/h 11,2 km/h NO 0,0 W/qm 0,0 nein 04:00
04:0511,0 °C 16,7 °C 17,8 °C 74 % 1023,9 hPa 0,0 mm 0,0 mm 1,4 km/h 9,7 km/h N 0,0 W/qm 0,0 nein 04:05
04:1010,8 °C 16,7 °C 17,8 °C 76 % 1023,8 hPa 0,0 mm 0,0 mm 1,4 km/h 9,7 km/h NNO 0,0 W/qm 0,0 nein 04:10
04:1510,8 °C 16,7 °C 17,8 °C 75 % 1023,8 hPa 0,0 mm - 1,4 km/h 9,7 km/h NNO 0,0 W/qm 0,0 nein 04:15
04:2010,3 °C 16,7 °C 17,8 °C 77 % 1023,8 hPa 0,0 mm - 0,0 km/h 7,9 km/h NNO 0,0 W/qm 0,0 nein 04:20
04:259,8 °C 16,7 °C 17,8 °C 80 % 1023,7 hPa 0,0 mm - 0,0 km/h 7,9 km/h NNO 0,0 W/qm 0,0 nein 04:25
04:309,4 °C 16,7 °C 17,8 °C 81 % 1023,9 hPa 0,0 mm - 0,0 km/h 3,2 km/h NNO 0,0 W/qm 0,0 nein 04:30
04:359,3 °C 16,7 °C 17,8 °C 82 % 1023,9 hPa 0,0 mm - 0,0 km/h 3,2 km/h NNO 0,0 W/qm 0,0 nein 04:35
04:409,0 °C 16,7 °C 17,8 °C 83 % 1024,0 hPa 0,0 mm - 0,0 km/h 3,2 km/h NNO 0,0 W/qm 0,0 nein 04:40
04:458,7 °C 16,7 °C 17,8 °C 84 % 1024,0 hPa 0,0 mm - 0,0 km/h 4,7 km/h NNO 0,0 W/qm 0,0 nein 04:45
04:508,6 °C 16,7 °C 17,8 °C 85 % 1024,1 hPa 0,0 mm - 0,0 km/h 4,7 km/h NNO 0,0 W/qm 0,0 nein 04:50
04:558,4 °C 16,7 °C 17,8 °C 86 % 1024,3 hPa 0,0 mm - 0,0 km/h 4,7 km/h NNO 0,0 W/qm 0,0 nein 04:55
05:008,4 °C 16,7 °C 17,8 °C 86 % 1024,1 hPa 0,0 mm - 0,0 km/h 0,0 km/h NNO 0,0 W/qm 0,0 nein 05:00
05:058,3 °C 16,7 °C 17,8 °C 86 % 1024,2 hPa 0,0 mm 0,0 mm 0,0 km/h 1,4 km/h NNO 0,0 W/qm 0,0 nein 05:05
05:108,1 °C 16,7 °C 17,8 °C 86 % 1024,2 hPa 0,0 mm 0,0 mm 0,0 km/h 1,4 km/h NNO 0,0 W/qm 0,0 nein 05:10
05:157,9 °C 16,1 °C 17,8 °C 87 % 1024,3 hPa 0,0 mm - 0,0 km/h 1,4 km/h NNO 0,0 W/qm 0,0 nein 05:15
05:207,9 °C 16,1 °C 17,8 °C 87 % 1024,2 hPa 0,0 mm - 0,0 km/h 1,4 km/h NNO 0,0 W/qm 0,0 nein 05:20
05:257,8 °C 16,1 °C 17,8 °C 88 % 1024,3 hPa 0,0 mm - 0,0 km/h 3,2 km/h NNO 0,0 W/qm 0,0 nein 05:25
05:307,7 °C 16,1 °C 17,8 °C 88 % 1024,4 hPa 0,0 mm - 0,0 km/h 3,2 km/h NNO 0,0 W/qm 0,0 nein 05:30
05:357,6 °C 16,1 °C 17,8 °C 88 % 1024,4 hPa 0,0 mm - 0,0 km/h 1,4 km/h NNO 0,0 W/qm 0,0 nein 05:35
05:407,6 °C 16,1 °C 17,8 °C 89 % 1024,4 hPa 0,0 mm - 0,0 km/h 0,0 km/h NNO 0,0 W/qm 0,0 nein 05:40
05:457,6 °C 16,1 °C 17,8 °C 88 % 1024,4 hPa 0,0 mm - 0,0 km/h 0,0 km/h NNO 0,0 W/qm 0,0 nein 05:45
05:507,6 °C 16,1 °C 17,8 °C 89 % 1024,3 hPa 0,0 mm - 0,0 km/h 0,0 km/h NNO 0,0 W/qm 0,0 nein 05:50
05:557,6 °C 16,1 °C 17,8 °C 89 % 1024,4 hPa 0,0 mm - 0,0 km/h 0,0 km/h NNO 0,0 W/qm 0,0 nein 05:55
UhrzeitTemperaturBoden 10cmBoden 20cmFeuchteLuftdruckNiederschlagEvapotranspirationWindWindböenWindrichtungSolarstrahlungUV-IndexSonne?Uhrzeit
06:007,7 °C 16,1 °C 17,8 °C 89 % 1024,4 hPa 0,0 mm - 0,0 km/h 0,0 km/h NNW 0,0 W/qm 0,0 nein 06:00
06:057,9 °C 16,1 °C 17,8 °C 89 % 1024,3 hPa 0,0 mm 0,0 mm 0,0 km/h 3,2 km/h NNW 0,0 W/qm 0,0 nein 06:05
06:108,2 °C 16,1 °C 17,8 °C 89 % 1024,4 hPa 0,0 mm 0,0 mm 0,0 km/h 3,2 km/h NNW 0,0 W/qm 0,0 nein 06:10
06:158,6 °C 16,1 °C 17,8 °C 89 % 1024,3 hPa 0,0 mm - 0,0 km/h 3,2 km/h NNW 0,0 W/qm 0,0 nein 06:15
06:208,7 °C 16,1 °C 17,8 °C 88 % 1024,3 hPa 0,0 mm - 0,0 km/h 0,0 km/h NNW 0,0 W/qm 0,0 nein 06:20
06:258,9 °C 16,1 °C 17,8 °C 87 % 1024,4 hPa 0,0 mm - 0,0 km/h 0,0 km/h NNW 0,0 W/qm 0,0 nein 06:25
06:309,1 °C 16,1 °C 17,8 °C 87 % 1024,4 hPa 0,0 mm - 0,0 km/h 0,0 km/h NNW 0,0 W/qm 0,0 nein 06:30
06:359,2 °C 16,1 °C 17,8 °C 86 % 1024,3 hPa 0,0 mm - 0,0 km/h 0,0 km/h NNW 0,0 W/qm 0,0 nein 06:35
06:409,4 °C 16,1 °C 17,8 °C 86 % 1024,3 hPa 0,0 mm - 0,0 km/h 1,4 km/h NNW 0,0 W/qm 0,0 nein 06:40
06:459,5 °C 16,1 °C 17,8 °C 86 % 1024,4 hPa 0,0 mm - 0,0 km/h 1,4 km/h NNW 0,0 W/qm 0,0 nein 06:45
06:509,5 °C 16,1 °C 17,8 °C 86 % 1024,4 hPa 0,0 mm - 0,0 km/h 1,4 km/h NNW 0,0 W/qm 0,0 nein 06:50
06:559,6 °C 16,1 °C 17,8 °C 85 % 1024,5 hPa 0,0 mm - 0,0 km/h 0,0 km/h NNO 5,0 W/qm 0,0 nein 06:55
07:009,7 °C 16,1 °C 17,8 °C 84 % 1024,4 hPa 0,0 mm - 0,0 km/h 4,7 km/h NNO 7,0 W/qm 0,0 nein 07:00
07:059,6 °C 16,1 °C 17,8 °C 84 % 1024,6 hPa 0,0 mm 0,0 mm 0,0 km/h 4,7 km/h NNO 9,0 W/qm 0,0 nein 07:05
07:109,2 °C 16,1 °C 17,2 °C 84 % 1024,7 hPa 0,0 mm 0,0 mm 0,0 km/h 4,7 km/h NNO 14,0 W/qm 0,0 nein 07:10
07:159,0 °C 16,1 °C 17,2 °C 85 % 1024,7 hPa 0,0 mm - 0,0 km/h 1,4 km/h NNO 18,0 W/qm 0,0 nein 07:15
07:208,9 °C 16,1 °C 17,2 °C 85 % 1024,8 hPa 0,0 mm - 0,0 km/h 1,4 km/h NNO 21,0 W/qm 0,0 nein 07:20
07:258,9 °C 16,1 °C 17,2 °C 85 % 1024,8 hPa 0,0 mm - 0,0 km/h 1,4 km/h NNO 25,0 W/qm 0,0 nein 07:25
07:308,7 °C 16,1 °C 17,2 °C 86 % 1024,8 hPa 0,0 mm - 0,0 km/h 1,4 km/h NNO 30,0 W/qm 0,0 nein 07:30
07:358,5 °C 16,1 °C 17,2 °C 87 % 1024,9 hPa 0,0 mm - 0,0 km/h 1,4 km/h NNO 35,0 W/qm 0,0 nein 07:35
07:408,6 °C 16,1 °C 17,2 °C 87 % 1025,1 hPa 0,0 mm - 0,0 km/h 0,0 km/h NNO 39,0 W/qm 0,0 nein 07:40
07:458,5 °C 16,1 °C 17,2 °C 87 % 1025,1 hPa 0,0 mm - 0,0 km/h 0,0 km/h NNO 44,0 W/qm 0,0 nein 07:45
07:508,5 °C 16,1 °C 17,2 °C 87 % 1025,1 hPa 0,0 mm - 0,0 km/h 0,0 km/h NNO 47,0 W/qm 0,0 nein 07:50
07:558,5 °C 16,1 °C 17,2 °C 88 % 1025,2 hPa 0,0 mm - 0,0 km/h 0,0 km/h NNO 51,0 W/qm 0,0 nein 07:55
UhrzeitTemperaturBoden 10cmBoden 20cmFeuchteLuftdruckNiederschlagEvapotranspirationWindWindböenWindrichtungSolarstrahlungUV-IndexSonne?Uhrzeit
08:008,5 °C 16,1 °C 17,2 °C 88 % 1025,2 hPa 0,0 mm - 0,0 km/h 0,0 km/h NNO 54,0 W/qm 0,0 nein 08:00
08:058,5 °C 16,1 °C 17,2 °C 89 % 1025,2 hPa 0,0 mm 0,1 mm 0,0 km/h 0,0 km/h NNO 60,0 W/qm 0,0 nein 08:05
08:108,6 °C 16,1 °C 17,2 °C 88 % 1025,2 hPa 0,0 mm 0,1 mm 0,0 km/h 0,0 km/h NNO 67,0 W/qm 0,0 nein 08:10
08:158,7 °C 16,1 °C 17,2 °C 88 % 1025,2 hPa 0,0 mm - 0,0 km/h 0,0 km/h NNO 70,0 W/qm 0,0 nein 08:15
08:208,9 °C 16,1 °C 17,2 °C 88 % 1025,1 hPa 0,0 mm - 0,0 km/h 0,0 km/h NNO 76,0 W/qm 0,0 nein 08:20
08:259,2 °C 16,1 °C 17,2 °C 87 % 1025,2 hPa 0,0 mm - 0,0 km/h 0,0 km/h NNO 79,0 W/qm 0,0 nein 08:25
08:309,4 °C 16,1 °C 17,2 °C 86 % 1025,1 hPa 0,0 mm - 0,0 km/h 0,0 km/h NNO 83,0 W/qm 0,0 nein 08:30
08:359,6 °C 16,1 °C 17,2 °C 86 % 1025,2 hPa 0,0 mm - 0,0 km/h 1,4 km/h NNO 86,0 W/qm 0,0 nein 08:35
08:4010,1 °C 16,1 °C 17,2 °C 85 % 1025,0 hPa 0,0 mm - 0,0 km/h 1,4 km/h NNO 90,0 W/qm 0,0 nein 08:40
08:4510,2 °C 16,1 °C 17,2 °C 84 % 1025,1 hPa 0,0 mm - 0,0 km/h 1,4 km/h NNO 93,0 W/qm 0,0 nein 08:45
08:5010,5 °C 16,1 °C 17,2 °C 83 % 1025,1 hPa 0,0 mm - 0,0 km/h 1,4 km/h NNO 97,0 W/qm 0,5 nein 08:50
08:5511,0 °C 16,1 °C 17,2 °C 81 % 1025,0 hPa 0,0 mm - 1,4 km/h 1,4 km/h SSO 100,0 W/qm 0,5 nein 08:55
09:0011,6 °C 16,1 °C 17,2 °C 77 % 1025,0 hPa 0,0 mm - 1,4 km/h 6,5 km/h SSO 230,0 W/qm 0,6 nein 09:00
09:0511,8 °C 16,1 °C 17,2 °C 77 % 1024,9 hPa 0,0 mm 0,1 mm 0,0 km/h 6,5 km/h S 243,0 W/qm 0,6 nein 09:05
09:1012,0 °C 16,1 °C 17,2 °C 74 % 1024,9 hPa 0,0 mm 0,1 mm 1,4 km/h 6,5 km/h SSO 255,0 W/qm 0,7 nein 09:10
09:1512,2 °C 16,1 °C 17,2 °C 74 % 1025,0 hPa 0,0 mm - 1,4 km/h 7,9 km/h SW 265,0 W/qm 0,7 nein 09:15
09:2012,3 °C 16,1 °C 17,2 °C 73 % 1025,0 hPa 0,0 mm - 1,4 km/h 7,9 km/h OSO 283,0 W/qm 0,8 ja 09:20
09:2512,5 °C 16,1 °C 17,2 °C 72 % 1025,1 hPa 0,0 mm - 1,4 km/h 9,7 km/h SO 292,0 W/qm 0,8 ja 09:25
09:3012,8 °C 16,1 °C 17,2 °C 71 % 1025,1 hPa 0,0 mm - 1,4 km/h 9,7 km/h SO 309,0 W/qm 0,9 ja 09:30
09:3512,9 °C 16,1 °C 17,2 °C 71 % 1025,1 hPa 0,0 mm - 1,4 km/h 9,7 km/h NO 320,0 W/qm 0,9 ja 09:35
09:4013,1 °C 16,1 °C 17,2 °C 70 % 1025,0 hPa 0,0 mm - 3,2 km/h 9,7 km/h ONO 332,0 W/qm 1,0 ja 09:40
09:4513,1 °C 16,1 °C 17,2 °C 72 % 1025,1 hPa 0,0 mm - 3,2 km/h 9,7 km/h ONO 346,0 W/qm 1,1 ja 09:45
09:5013,2 °C 16,1 °C 17,2 °C 70 % 1025,1 hPa 0,0 mm - 3,2 km/h 9,7 km/h NO 359,0 W/qm 1,1 ja 09:50
09:5513,3 °C 16,1 °C 17,2 °C 69 % 1025,1 hPa 0,0 mm - 3,2 km/h 11,2 km/h ONO 380,0 W/qm 1,2 ja 09:55
UhrzeitTemperaturBoden 10cmBoden 20cmFeuchteLuftdruckNiederschlagEvapotranspirationWindWindböenWindrichtungSolarstrahlungUV-IndexSonne?Uhrzeit
10:0013,6 °C 16,1 °C 17,2 °C 69 % 1025,1 hPa 0,0 mm - 1,4 km/h 11,2 km/h SO 394,0 W/qm 1,3 ja 10:00
10:0513,9 °C 16,1 °C 17,2 °C 69 % 1025,0 hPa 0,0 mm 0,3 mm 3,2 km/h 9,7 km/h NO 403,0 W/qm 1,4 ja 10:05
10:1014,1 °C 16,1 °C 17,2 °C 68 % 1025,0 hPa 0,0 mm 0,3 mm 3,2 km/h 9,7 km/h NO 417,0 W/qm 1,4 ja 10:10
10:1514,3 °C 16,1 °C 17,2 °C 68 % 1025,0 hPa 0,0 mm - 3,2 km/h 9,7 km/h S 427,0 W/qm 1,5 ja 10:15
10:2014,6 °C 16,1 °C 17,2 °C 65 % 1025,0 hPa 0,0 mm - 3,2 km/h 9,7 km/h S 436,0 W/qm 1,6 ja 10:20
10:2514,9 °C 16,1 °C 17,2 °C 66 % 1025,0 hPa 0,0 mm - 3,2 km/h 9,7 km/h SSW 448,0 W/qm 1,6 ja 10:25
10:3015,4 °C 16,1 °C 17,2 °C 64 % 1024,9 hPa 0,0 mm - 3,2 km/h 14,4 km/h SO 457,0 W/qm 1,7 ja 10:30
10:3515,4 °C 16,1 °C 17,2 °C 62 % 1025,0 hPa 0,0 mm - 4,7 km/h 14,4 km/h S 476,0 W/qm 1,8 ja 10:35
10:4015,7 °C 16,1 °C 17,2 °C 62 % 1025,0 hPa 0,0 mm - 4,7 km/h 14,4 km/h SO 489,0 W/qm 1,8 ja 10:40
10:4515,5 °C 16,1 °C 17,2 °C 63 % 1024,9 hPa 0,0 mm - 4,7 km/h 14,4 km/h ONO 497,0 W/qm 1,9 ja 10:45
10:5016,0 °C 16,1 °C 17,2 °C 61 % 1025,0 hPa 0,0 mm - 4,7 km/h 14,4 km/h SSO 504,0 W/qm 1,9 ja 10:50
10:5515,9 °C 16,1 °C 17,2 °C 61 % 1025,0 hPa 0,0 mm - 6,5 km/h 17,6 km/h S 512,0 W/qm 2,0 ja 10:55
11:0015,9 °C 16,1 °C 17,2 °C 61 % 1025,0 hPa 0,0 mm - 4,7 km/h 17,6 km/h N 524,0 W/qm 2,1 ja 11:00
11:0516,1 °C 16,1 °C 17,2 °C 62 % 1024,8 hPa 0,0 mm 0,5 mm 3,2 km/h 17,6 km/h S 531,0 W/qm 2,2 ja 11:05
11:1015,8 °C 16,1 °C 17,2 °C 61 % 1024,8 hPa 0,0 mm 0,5 mm 4,7 km/h 16,2 km/h OSO 543,0 W/qm 2,2 ja 11:10
11:1516,3 °C 16,1 °C 17,2 °C 60 % 1024,8 hPa 0,0 mm - 4,7 km/h 16,2 km/h SO 554,0 W/qm 2,3 ja 11:15
11:2016,3 °C 16,1 °C 17,2 °C 60 % 1024,6 hPa 0,0 mm - 3,2 km/h 13,0 km/h ONO 561,0 W/qm 2,3 ja 11:20
11:2516,4 °C 16,1 °C 17,2 °C 61 % 1024,7 hPa 0,0 mm - 1,4 km/h 13,0 km/h ONO 570,0 W/qm 2,4 ja 11:25
11:3016,6 °C 16,1 °C 17,2 °C 63 % 1024,7 hPa 0,0 mm - 3,2 km/h 13,0 km/h OSO 580,0 W/qm 2,5 ja 11:30
11:3517,1 °C 16,1 °C 17,2 °C 59 % 1024,5 hPa 0,0 mm - 3,2 km/h 13,0 km/h SSW 584,0 W/qm 2,5 ja 11:35
11:4016,9 °C 16,1 °C 17,2 °C 60 % 1024,5 hPa 0,0 mm - 3,2 km/h 13,0 km/h NNO 592,0 W/qm 2,6 ja 11:40
11:4516,8 °C 16,1 °C 17,2 °C 61 % 1024,5 hPa 0,0 mm - 4,7 km/h 9,7 km/h NNO 601,0 W/qm 2,6 ja 11:45
11:5017,0 °C 16,1 °C 17,2 °C 59 % 1024,4 hPa 0,0 mm - 4,7 km/h 17,6 km/h NO 606,0 W/qm 2,6 ja 11:50
11:5517,2 °C 16,1 °C 17,2 °C 59 % 1024,4 hPa 0,0 mm - 3,2 km/h 17,6 km/h N 610,0 W/qm 2,7 ja 11:55
UhrzeitTemperaturBoden 10cmBoden 20cmFeuchteLuftdruckNiederschlagEvapotranspirationWindWindböenWindrichtungSolarstrahlungUV-IndexSonne?Uhrzeit
12:0017,3 °C 16,7 °C 17,2 °C 59 % 1024,4 hPa 0,0 mm - 3,2 km/h 14,4 km/h ONO 615,0 W/qm 2,7 ja 12:00
12:0517,4 °C 16,7 °C 17,2 °C 60 % 1024,3 hPa 0,0 mm 0,8 mm 3,2 km/h 14,4 km/h NO 617,0 W/qm 2,8 ja 12:05
12:1017,6 °C 16,7 °C 17,2 °C 59 % 1024,2 hPa 0,0 mm 0,8 mm 3,2 km/h 11,2 km/h SSW 624,0 W/qm 2,8 ja 12:10
12:1517,8 °C 16,7 °C 17,2 °C 57 % 1024,2 hPa 0,0 mm - 4,7 km/h 11,2 km/h SSO 631,0 W/qm 2,8 ja 12:15
12:2017,8 °C 16,7 °C 17,2 °C 59 % 1024,2 hPa 0,0 mm - 7,9 km/h 17,6 km/h SSW 631,0 W/qm 2,8 ja 12:20
12:2517,9 °C 16,7 °C 17,2 °C 59 % 1024,2 hPa 0,0 mm - 4,7 km/h 17,6 km/h SSO 636,0 W/qm 2,9 ja 12:25
12:3018,0 °C 16,7 °C 17,2 °C 60 % 1023,9 hPa 0,0 mm - 3,2 km/h 17,6 km/h NO 642,0 W/qm 2,9 ja 12:30
12:3517,9 °C 16,7 °C 17,2 °C 58 % 1024,0 hPa 0,0 mm - 4,7 km/h 14,4 km/h ONO 643,0 W/qm 3,0 ja 12:35
12:4018,3 °C 16,7 °C 17,2 °C 57 % 1023,8 hPa 0,0 mm - 4,7 km/h 16,2 km/h OSO 647,0 W/qm 3,0 ja 12:40
12:4518,4 °C 16,7 °C 17,2 °C 58 % 1023,8 hPa 0,0 mm - 6,5 km/h 16,2 km/h S 650,0 W/qm 3,0 ja 12:45
12:5018,5 °C 16,7 °C 17,2 °C 58 % 1023,7 hPa 0,0 mm - 4,7 km/h 16,2 km/h S 649,0 W/qm 3,0 ja 12:50
12:5519,0 °C 17,2 °C 17,2 °C 57 % 1023,5 hPa 0,0 mm - 4,7 km/h 16,2 km/h SSO 649,0 W/qm 3,0 ja 12:55
13:0018,5 °C 17,2 °C 17,2 °C 57 % 1023,6 hPa 0,0 mm - 4,7 km/h 14,4 km/h ONO 652,0 W/qm 3,0 ja 13:00
13:0518,3 °C 17,2 °C 17,2 °C 59 % 1023,5 hPa 0,0 mm 1,2 mm 4,7 km/h 14,4 km/h NO 652,0 W/qm 3,0 ja 13:05
13:1018,3 °C 17,2 °C 17,2 °C 58 % 1023,6 hPa 0,0 mm 1,2 mm 4,7 km/h 11,2 km/h NO 654,0 W/qm 3,0 ja 13:10
13:1518,7 °C 17,2 °C 17,2 °C 57 % 1023,4 hPa 0,0 mm - 4,7 km/h 16,2 km/h NO 657,0 W/qm 3,0 ja 13:15
13:2018,8 °C 17,2 °C 17,2 °C 55 % 1023,3 hPa 0,0 mm - 6,5 km/h 16,2 km/h SSO 656,0 W/qm 3,0 ja 13:20
13:2518,9 °C 17,2 °C 17,2 °C 54 % 1023,3 hPa 0,0 mm - 6,5 km/h 14,4 km/h ONO 657,0 W/qm 3,0 ja 13:25
13:3018,8 °C 17,2 °C 17,2 °C 54 % 1023,3 hPa 0,0 mm - 6,5 km/h 14,4 km/h ONO 654,0 W/qm 3,0 ja 13:30
13:3519,0 °C 17,2 °C 17,2 °C 55 % 1023,2 hPa 0,0 mm - 4,7 km/h 17,6 km/h S 654,0 W/qm 3,0 ja 13:35
13:4019,1 °C 17,2 °C 17,2 °C 52 % 1023,2 hPa 0,0 mm - 3,2 km/h 17,6 km/h SSO 654,0 W/qm 3,0 ja 13:40
13:4519,4 °C 17,2 °C 17,2 °C 52 % 1023,0 hPa 0,0 mm - 4,7 km/h 17,6 km/h SSO 652,0 W/qm 3,0 ja 13:45
13:5019,2 °C 17,8 °C 17,2 °C 52 % 1023,1 hPa 0,0 mm - 6,5 km/h 14,4 km/h ONO 650,0 W/qm 2,9 ja 13:50
13:5519,4 °C 17,8 °C 17,2 °C 50 % 1023,1 hPa 0,0 mm - 3,2 km/h 14,4 km/h NNO 647,0 W/qm 2,9 ja 13:55
UhrzeitTemperaturBoden 10cmBoden 20cmFeuchteLuftdruckNiederschlagEvapotranspirationWindWindböenWindrichtungSolarstrahlungUV-IndexSonne?Uhrzeit
14:0019,3 °C 17,8 °C 17,2 °C 49 % 1023,0 hPa 0,0 mm - 4,7 km/h 14,4 km/h SSO 645,0 W/qm 2,9 ja 14:00
14:0519,4 °C 17,8 °C 17,2 °C 50 % 1023,1 hPa 0,0 mm 1,6 mm 6,5 km/h 14,4 km/h SO 643,0 W/qm 2,9 ja 14:05
14:1019,7 °C 17,8 °C 17,2 °C 48 % 1023,1 hPa 0,0 mm 1,6 mm 6,5 km/h 14,4 km/h S 643,0 W/qm 2,8 ja 14:10
14:1519,8 °C 17,8 °C 17,2 °C 46 % 1022,9 hPa 0,0 mm - 4,7 km/h 14,4 km/h SSO 640,0 W/qm 2,8 ja 14:15
14:2020,2 °C 17,8 °C 17,2 °C 46 % 1022,9 hPa 0,0 mm - 4,7 km/h 14,4 km/h SO 633,0 W/qm 2,8 ja 14:20
14:2519,9 °C 17,8 °C 17,2 °C 44 % 1022,9 hPa 0,0 mm - 4,7 km/h 14,4 km/h SSW 631,0 W/qm 2,7 ja 14:25
14:3019,9 °C 17,8 °C 17,2 °C 45 % 1022,8 hPa 0,0 mm - 6,5 km/h 14,4 km/h SSO 624,0 W/qm 2,7 ja 14:30
14:3519,8 °C 18,3 °C 17,2 °C 44 % 1022,8 hPa 0,0 mm - 6,5 km/h 14,4 km/h S 619,0 W/qm 2,6 ja 14:35
14:4019,7 °C 18,3 °C 17,2 °C 44 % 1022,7 hPa 0,0 mm - 6,5 km/h 17,6 km/h ONO 613,0 W/qm 2,6 ja 14:40
14:4519,9 °C 18,3 °C 17,2 °C 45 % 1022,5 hPa 0,0 mm - 6,5 km/h 17,6 km/h SSO 606,0 W/qm 2,5 ja 14:45
14:5020,5 °C 18,3 °C 17,2 °C 45 % 1022,4 hPa 0,0 mm - 4,7 km/h 19,4 km/h ONO 603,0 W/qm 2,5 ja 14:50
14:5520,6 °C 18,3 °C 17,8 °C 43 % 1022,6 hPa 0,0 mm - 4,7 km/h 19,4 km/h S 596,0 W/qm 2,5 ja 14:55
15:0020,3 °C 18,3 °C 17,8 °C 44 % 1022,5 hPa 0,0 mm - 6,5 km/h 19,4 km/h SO 591,0 W/qm 2,4 ja 15:00
15:0520,4 °C 18,3 °C 17,8 °C 44 % 1022,4 hPa 0,0 mm 2,0 mm 6,5 km/h 16,2 km/h OSO 584,0 W/qm 2,3 ja 15:05
15:1020,4 °C 18,3 °C 17,8 °C 43 % 1022,3 hPa 0,0 mm 2,0 mm 4,7 km/h 16,2 km/h SSW 577,0 W/qm 2,3 ja 15:10
15:1520,7 °C 18,3 °C 17,8 °C 43 % 1022,4 hPa 0,0 mm - 4,7 km/h 16,2 km/h SSO 570,0 W/qm 2,2 ja 15:15
15:2020,5 °C 18,3 °C 17,8 °C 41 % 1022,3 hPa 0,0 mm - 7,9 km/h 16,2 km/h S 563,0 W/qm 2,2 ja 15:20
15:2520,4 °C 18,3 °C 17,8 °C 42 % 1022,3 hPa 0,0 mm - 9,7 km/h 17,6 km/h S 550,0 W/qm 2,1 ja 15:25
15:3020,2 °C 18,3 °C 17,8 °C 43 % 1022,2 hPa 0,0 mm - 6,5 km/h 19,4 km/h SSO 543,0 W/qm 2,0 ja 15:30
15:3520,2 °C 18,9 °C 17,8 °C 42 % 1022,2 hPa 0,0 mm - 4,7 km/h 19,4 km/h OSO 534,0 W/qm 2,0 ja 15:35
15:4020,3 °C 18,9 °C 17,8 °C 44 % 1022,2 hPa 0,0 mm - 6,5 km/h 19,4 km/h SSO 529,0 W/qm 1,9 ja 15:40
15:4520,4 °C 18,9 °C 17,8 °C 44 % 1022,1 hPa 0,0 mm - 6,5 km/h 16,2 km/h S 519,0 W/qm 1,9 ja 15:45
15:5020,6 °C 18,9 °C 17,8 °C 44 % 1022,1 hPa 0,0 mm - 4,7 km/h 16,2 km/h ONO 506,0 W/qm 1,8 ja 15:50
15:5520,5 °C 18,9 °C 17,8 °C 43 % 1022,0 hPa 0,0 mm - 4,7 km/h 17,6 km/h SSO 497,0 W/qm 1,7 ja 15:55
UhrzeitTemperaturBoden 10cmBoden 20cmFeuchteLuftdruckNiederschlagEvapotranspirationWindWindböenWindrichtungSolarstrahlungUV-IndexSonne?Uhrzeit
16:0020,7 °C 18,9 °C 17,8 °C 43 % 1021,9 hPa 0,0 mm - 4,7 km/h 17,6 km/h ONO 482,0 W/qm 1,7 ja 16:00
16:0520,3 °C 18,9 °C 17,8 °C 45 % 1021,9 hPa 0,0 mm 2,4 mm 4,7 km/h 17,6 km/h ONO 473,0 W/qm 1,6 ja 16:05
16:1020,3 °C 18,9 °C 17,8 °C 44 % 1021,8 hPa 0,0 mm 2,4 mm 3,2 km/h 17,6 km/h NNO 462,0 W/qm 1,5 ja 16:10
16:1520,2 °C 18,9 °C 17,8 °C 42 % 1021,8 hPa 0,0 mm - 3,2 km/h 13,0 km/h SSO 448,0 W/qm 1,5 ja 16:15
16:2020,6 °C 18,9 °C 17,8 °C 44 % 1021,8 hPa 0,0 mm - 3,2 km/h 13,0 km/h NO 438,0 W/qm 1,4 ja 16:20
16:2520,6 °C 18,9 °C 17,8 °C 42 % 1021,8 hPa 0,0 mm - 3,2 km/h 13,0 km/h S 427,0 W/qm 1,4 ja 16:25
16:3020,9 °C 18,9 °C 17,8 °C 40 % 1021,7 hPa 0,0 mm - 4,7 km/h 11,2 km/h SSO 420,0 W/qm 1,3 ja 16:30
16:3520,7 °C 18,9 °C 17,8 °C 41 % 1021,7 hPa 0,0 mm - 3,2 km/h 13,0 km/h SSO 404,0 W/qm 1,3 ja 16:35
16:4020,6 °C 18,9 °C 17,8 °C 42 % 1021,8 hPa 0,0 mm - 3,2 km/h 13,0 km/h NW 390,0 W/qm 1,2 ja 16:40
16:4520,5 °C 18,9 °C 17,8 °C 40 % 1021,8 hPa 0,0 mm - 3,2 km/h 13,0 km/h SSW 380,0 W/qm 1,1 ja 16:45
16:5020,8 °C 18,9 °C 17,8 °C 40 % 1021,8 hPa 0,0 mm - 3,2 km/h 13,0 km/h SSO 366,0 W/qm 1,1 ja 16:50
16:5520,5 °C 18,9 °C 17,8 °C 40 % 1021,7 hPa 0,0 mm - 3,2 km/h 11,2 km/h S 350,0 W/qm 1,0 ja 16:55
17:0020,7 °C 18,9 °C 17,8 °C 39 % 1021,8 hPa 0,0 mm - 3,2 km/h 13,0 km/h SSO 336,0 W/qm 1,0 ja 17:00
17:0520,5 °C 18,9 °C 17,8 °C 40 % 1021,6 hPa 0,0 mm 2,7 mm 4,7 km/h 14,4 km/h N 323,0 W/qm 0,9 ja 17:05
17:1020,6 °C 18,9 °C 17,8 °C 40 % 1021,6 hPa 0,0 mm 2,7 mm 3,2 km/h 14,4 km/h SSO 308,0 W/qm 0,8 ja 17:10
17:1520,6 °C 18,9 °C 17,8 °C 38 % 1021,6 hPa 0,0 mm - 3,2 km/h 14,4 km/h SSW 290,0 W/qm 0,8 ja 17:15
17:2020,6 °C 18,9 °C 17,8 °C 39 % 1021,6 hPa 0,0 mm - 4,7 km/h 13,0 km/h SSO 279,0 W/qm 0,7 ja 17:20
17:2520,4 °C 18,9 °C 17,8 °C 39 % 1021,6 hPa 0,0 mm - 3,2 km/h 13,0 km/h SSO 264,0 W/qm 0,7 nein 17:25
17:3020,5 °C 18,9 °C 17,8 °C 39 % 1021,5 hPa 0,0 mm - 4,7 km/h 13,0 km/h SO 248,0 W/qm 0,6 nein 17:30
17:3520,2 °C 18,9 °C 17,8 °C 40 % 1021,6 hPa 0,0 mm - 4,7 km/h 13,0 km/h NO 232,0 W/qm 0,6 nein 17:35
17:4020,0 °C 18,9 °C 17,8 °C 40 % 1021,7 hPa 0,0 mm - 3,2 km/h 13,0 km/h NNO 218,0 W/qm 0,5 nein 17:40
17:4520,0 °C 18,9 °C 17,8 °C 40 % 1021,7 hPa 0,0 mm - 3,2 km/h 13,0 km/h S 200,0 W/qm 0,5 nein 17:45
17:5020,0 °C 18,9 °C 17,8 °C 39 % 1021,7 hPa 0,0 mm - 3,2 km/h 13,0 km/h S 183,0 W/qm 0,0 nein 17:50
17:5519,7 °C 18,9 °C 17,8 °C 42 % 1021,7 hPa 0,0 mm - 1,4 km/h 13,0 km/h ONO 165,0 W/qm 0,0 nein 17:55
UhrzeitTemperaturBoden 10cmBoden 20cmFeuchteLuftdruckNiederschlagEvapotranspirationWindWindböenWindrichtungSolarstrahlungUV-IndexSonne?Uhrzeit
18:0019,1 °C 18,3 °C 17,8 °C 44 % 1021,7 hPa 0,0 mm - 1,4 km/h 13,0 km/h N 151,0 W/qm 0,0 nein 18:00
18:0519,1 °C 18,3 °C 17,8 °C 42 % 1021,7 hPa 0,0 mm 2,8 mm 0,0 km/h 7,9 km/h S 135,0 W/qm 0,0 nein 18:05
18:1019,2 °C 18,3 °C 17,8 °C 44 % 1021,5 hPa 0,0 mm 2,8 mm 1,4 km/h 7,9 km/h N 91,0 W/qm 0,0 nein 18:10
18:1519,1 °C 18,3 °C 17,8 °C 41 % 1021,7 hPa 0,0 mm - 1,4 km/h 7,9 km/h S 90,0 W/qm 0,0 nein 18:15
18:2019,1 °C 18,3 °C 17,8 °C 41 % 1021,6 hPa 0,0 mm - 1,4 km/h 7,9 km/h SSW 60,0 W/qm 0,0 nein 18:20
18:2518,8 °C 18,3 °C 18,3 °C 42 % 1021,5 hPa 0,0 mm - 0,0 km/h 6,5 km/h SSW 44,0 W/qm 0,0 nein 18:25
Gesamt: 14,2 °C 17,0 °C 17,6 °C 66 % 1023,8 hPa 0,0 mm 29,3 mm 2,5 km/h 9,5 km/h 0 249,6 W/qm 1,0 ja

Insgesamt 222 Zeilen mal 13 Spalten = 2886 Werte werden angezeigt.

www.wetter-rosstal.de   •   www.wetter-franken.de   •   www.lightningmaps.org   •   Start   •   Kontakt / Datenschutz   •   PC-Kümmerer